This is the latest recevied weather packets stored in our database for station/object SV9TNF-56. If no packets are shown the sender has not sent any weather packets the latest 10 day(s).
| Time | Temp. | Humidity | Pressure | Rain* | Wind** | Luminosity | Snow |
|---|---|---|---|---|---|---|---|
| 1788584554 | 24.44° C | 67% | 1011.9 hPa | 0 mm | 26.38 m/s, 228° | - | - |
| 1788584254 | 23.89° C | 68% | 1011.9 hPa | 0 mm | 49.62 m/s, 275° | - | - |
| 1788583953 | 23.89° C | 69% | 1011.9 hPa | 0 mm | 36.21 m/s, 264° | - | - |
| 1788583654 | 23.89° C | 70% | 1011.5 hPa | 0 mm | 28.61 m/s, 294° | - | - |
| 1788583354 | 23.89° C | 69% | 1011.9 hPa | 0 mm | 28.61 m/s, 324° | - | - |
| 1788583053 | 23.89° C | 69% | 1011.9 hPa | 0 mm | 28.61 m/s, 282° | - | - |
| 1788582753 | 23.89° C | 71% | 1011.9 hPa | 0 mm | 22.8 m/s, 276° | - | - |
| 1788582453 | 23.89° C | 71% | 1011.5 hPa | 0 mm | 12.52 m/s, 250° | - | - |
| 1788582153 | 23.89° C | 71% | 1011.9 hPa | 0 mm | 27.27 m/s, 342° | - | - |
| 1788581853 | 23.89° C | 71% | 1011.9 hPa | 0 mm | 32.19 m/s, 312° | - | - |
| 1788581553 | 23.89° C | 69% | 1011.5 hPa | 0 mm | 26.82 m/s, 294° | - | - |
| 1788581253 | 23.89° C | 71% | 1011.5 hPa | 0 mm | 22.8 m/s, 260° | - | - |
| 1788580953 | 23.89° C | 71% | 1011.9 hPa | 0 mm | 12.96 m/s, 336° | - | - |
| 1788580653 | 23.89° C | 72% | 1011.2 hPa | 0 mm | 25.48 m/s, 318° | - | - |
| 1788580353 | 23.89° C | 73% | 1011.5 hPa | 0 mm | 27.27 m/s, 306° | - | - |
| 1788580052 | 23.89° C | 73% | 1011.5 hPa | 0 mm | 29.06 m/s, 283° | - | - |
| 1788579752 | 23.89° C | 73% | 1011.2 hPa | 0 mm | 24.14 m/s, 335° | - | - |
| 1788579452 | 23.89° C | 73% | 1011.2 hPa | 0 mm | 34.42 m/s, 301° | - | - |
| 1788579152 | 23.89° C | 72% | 1011.2 hPa | 0 mm | 26.38 m/s, 300° | - | - |
| 1788578852 | 23.89° C | 71% | 1011.2 hPa | 0 mm | 32.19 m/s, 348° | - | - |
| 1788578552 | 23.89° C | 71% | 1011.2 hPa | 0 mm | 20.56 m/s, 288° | - | - |
| 1788578252 | 23.89° C | 71% | 1011.2 hPa | 0 mm | 21.46 m/s, 290° | - | - |
| 1788577951 | 23.89° C | 72% | 1011.2 hPa | 0 mm | 31.74 m/s, 282° | - | - |
| 1788577652 | 23.89° C | 73% | 1011.5 hPa | 0 mm | 29.5 m/s, 288° | - | - |
| 1788577351 | 23.89° C | 74% | 1011.2 hPa | 0 mm | 26.82 m/s, 284° | - | - |
* Rain latest hour (hover to see other rain measurements)
** Current wind speed in m/s (hover to see current wind gust speed)